When you browse on this site, cookies collect data to enhance your experience and personalize the content and advertising you see.
Visit our Privacy Policy to learn more. By continuing to use the site, you agree to this use of cookies and data.
  • In Deutschland
  • Länderverzeichnis
  • Für 7 Tage
  • Wassertemperatur
  • Wetterkarte
  • Widgets
  • user-avatar
    Anmelden

    Stündliche Wetter Vanadzor

    Heute, 7 Dezember, Samstag

    Zeit Temperatur Niederschläge Wind Luftdruck Luftfeuchtigkeit
    00:00 -4°C° 0 mm 0 m/S 637 mmHg 87%
    01:00 -4°C° 0 mm 0 m/S 637 mmHg 86%
    02:00 -4°C° 0 mm 0 m/S 637 mmHg 85%
    03:00 -4°C° 0 mm 0 m/S 637 mmHg 86%
    04:00 -4°C° 0 mm 0 m/S 637 mmHg 85%
    05:00 -4°C° 0 mm 0 m/S 636 mmHg 85%
    06:00 -4°C° 0 mm 0 m/S 636 mmHg 84%
    07:00 -3°C° 0 mm 0 m/S 636 mmHg 82%
    08:00 -2°C° 0 mm 0 m/S 637 mmHg 80%
    09:00 -1°C° 0 mm 0 m/S 637 mmHg 79%
    10:00 0°C° 0 mm 0 m/S 637 mmHg 79%
    11:00 +2°C° 0 mm 1 m/S 636 mmHg 78%
    12:00 +3°C° 0 mm 1 m/S 636 mmHg 78%
    13:00 +3°C° 0 mm 1 m/S 635 mmHg 80%
    14:00 +2°C° 0 mm 1 m/S 635 mmHg 82%
    15:00 +2°C° 0 mm 1 m/S 634 mmHg 84%
    16:00 +1°C° 0 mm 1 m/S 634 mmHg 86%
    17:00 0°C° 0 mm 1 m/S 634 mmHg 87%
    18:00 -2°C° 0 mm 0 m/S 634 mmHg 89%
    19:00 -2°C° 0 mm 0 m/S 633 mmHg 88%
    20:00 -3°C° 0 mm 0 m/S 633 mmHg 86%
    21:00 -3°C° 0 mm 0 m/S 633 mmHg 85%
    22:00 -3°C° 0 mm 0 m/S 633 mmHg 85%
    23:00 -3°C° 0 mm 0 m/S 633 mmHg 84%

    Morgen, 8 Dezember, Sonntag

    Zeit Temperatur Niederschläge Wind Luftdruck Luftfeuchtigkeit
    00:00 -3°C° 0 mm 0 m/S 633 mmHg 84%
    01:00 -3°C° 0 mm 0 m/S 632 mmHg 84%
    02:00 -3°C° 0 mm 0 m/S 632 mmHg 84%
    03:00 -3°C° 0 mm 0 m/S 632 mmHg 83%
    04:00 -3°C° 0 mm 0 m/S 631 mmHg 82%
    05:00 -3°C° 0 mm 0 m/S 631 mmHg 81%
    06:00 -2°C° 0 mm 0 m/S 631 mmHg 80%
    07:00 -1°C° 0 mm 0 m/S 631 mmHg 78%
    08:00 -1°C° 0 mm 0 m/S 631 mmHg 77%
    09:00 0°C° 0 mm 0 m/S 631 mmHg 75%
    10:00 +1°C° 0 mm 0 m/S 631 mmHg 74%
    11:00 +3°C° 0 mm 1 m/S 631 mmHg 73%
    12:00 +4°C° 0 mm 1 m/S 631 mmHg 73%
    13:00 +4°C° 0 mm 1 m/S 630 mmHg 74%
    14:00 +4°C° 0 mm 1 m/S 630 mmHg 76%
    15:00 +3°C° 0 mm 1 m/S 629 mmHg 78%
    16:00 +3°C° 0 mm 1 m/S 629 mmHg 78%
    17:00 +2°C° 0 mm 1 m/S 629 mmHg 79%
    18:00 +1°C° 0 mm 1 m/S 629 mmHg 79%
    19:00 +1°C° 0 mm 1 m/S 630 mmHg 79%
    20:00 +1°C° 0 mm 1 m/S 630 mmHg 78%
    21:00 0°C° 0 mm 1 m/S 630 mmHg 78%
    22:00 -2°C° 0 mm 2 m/S 630 mmHg 78%
    23:00 -2°C° 0 mm 2 m/S 630 mmHg 79%

    übermorgen, 9 Dezember, Montag

    Zeit Temperatur Niederschläge Wind Luftdruck Luftfeuchtigkeit
    00:00 -2°C° 0 mm 2 m/S 630 mmHg 80%
    01:00 -3°C° 0 mm 2 m/S 630 mmHg 80%
    02:00 -3°C° 0 mm 2 m/S 630 mmHg 81%
    03:00 -3°C° 0 mm 2 m/S 630 mmHg 81%
    04:00 -3°C° 0 mm 2 m/S 630 mmHg 81%
    05:00 -3°C° 0 mm 2 m/S 630 mmHg 82%
    06:00 -3°C° 0 mm 2 m/S 630 mmHg 82%
    07:00 -3°C° 0 mm 2 m/S 631 mmHg 80%
    08:00 -2°C° 0 mm 2 m/S 631 mmHg 79%
    09:00 -2°C° 0 mm 2 m/S 632 mmHg 78%
    10:00 -1°C° 0 mm 2 m/S 632 mmHg 76%
    11:00 +1°C° 0 mm 2 m/S 632 mmHg 74%
    12:00 +2°C° 0 mm 2 m/S 632 mmHg 71%
    13:00 +2°C° 0 mm 2 m/S 632 mmHg 73%
    14:00 +3°C° 0 mm 1 m/S 632 mmHg 74%
    15:00 +2°C° 0 mm 1 m/S 632 mmHg 76%
    16:00 +1°C° 0 mm 1 m/S 632 mmHg 77%
    17:00 -2°C° 0 mm 2 m/S 632 mmHg 78%
    18:00 -3°C° 0 mm 2 m/S 632 mmHg 80%
    19:00 -3°C° 0 mm 2 m/S 632 mmHg 78%
    20:00 -3°C° 0 mm 2 m/S 632 mmHg 77%
    21:00 -3°C° 0 mm 2 m/S 633 mmHg 76%
    22:00 -4°C° 0 mm 2 m/S 633 mmHg 75%
    23:00 -4°C° 0 mm 2 m/S 633 mmHg 75%

    10 Dezember, Dienstag

    Zeit Temperatur Niederschläge Wind Luftdruck Luftfeuchtigkeit
    00:00 -4°C° 0 mm 2 m/S 633 mmHg 74%
    01:00 -4°C° 0 mm 2 m/S 633 mmHg 73%
    02:00 -4°C° 0 mm 2 m/S 633 mmHg 72%
    03:00 -5°C° 0 mm 2 m/S 633 mmHg 71%
    04:00 -5°C° 0 mm 2 m/S 633 mmHg 71%
    05:00 -5°C° 0 mm 2 m/S 633 mmHg 72%
    06:00 -5°C° 0 mm 2 m/S 633 mmHg 72%
    07:00 -4°C° 0 mm 2 m/S 633 mmHg 71%
    08:00 -3°C° 0 mm 2 m/S 633 mmHg 71%
    09:00 -3°C° 0 mm 2 m/S 634 mmHg 71%
    10:00 -2°C° 0 mm 2 m/S 634 mmHg 70%
    11:00 -1°C° 0 mm 2 m/S 634 mmHg 69%
    12:00 +2°C° 0 mm 1 m/S 634 mmHg 67%
    13:00 +2°C° 0 mm 1 m/S 633 mmHg 70%
    14:00 +2°C° 0 mm 1 m/S 633 mmHg 73%
    15:00 +2°C° 0 mm 1 m/S 633 mmHg 75%
    16:00 +1°C° 0 mm 1 m/S 632 mmHg 76%
    17:00 0°C° 0 mm 1 m/S 632 mmHg 77%
    18:00 -1°C° 0 mm 1 m/S 632 mmHg 77%
    19:00 -1°C° 0 mm 1 m/S 632 mmHg 76%
    20:00 -1°C° 0 mm 1 m/S 633 mmHg 75%
    21:00 -3°C° 0 mm 2 m/S 633 mmHg 74%
    22:00 -3°C° 0 mm 2 m/S 633 mmHg 74%
    23:00 -4°C° 0 mm 2 m/S 633 mmHg 74%

    11 Dezember, Mittwoch

    Zeit Temperatur Niederschläge Wind Luftdruck Luftfeuchtigkeit
    00:00 -4°C° 0 mm 2 m/S 633 mmHg 74%
    01:00 -4°C° 0 mm 2 m/S 633 mmHg 74%
    02:00 -4°C° 0 mm 2 m/S 633 mmHg 74%
    03:00 -4°C° 0 mm 2 m/S 632 mmHg 74%
    04:00 -4°C° 0 mm 2 m/S 632 mmHg 74%
    05:00 -5°C° 0 mm 2 m/S 632 mmHg 73%
    06:00 -5°C° 0 mm 2 m/S 632 mmHg 73%
    07:00 -4°C° 0 mm 2 m/S 632 mmHg 72%
    08:00 -3°C° 0 mm 2 m/S 633 mmHg 70%
    09:00 -2°C° 0 mm 2 m/S 633 mmHg 69%
    10:00 -1°C° 0 mm 2 m/S 633 mmHg 67%
    11:00 +1°C° 0 mm 2 m/S 633 mmHg 65%
    12:00 +2°C° 0 mm 2 m/S 633 mmHg 63%
    13:00 +2°C° 0 mm 2 m/S 632 mmHg 65%
    14:00 +2°C° 0 mm 2 m/S 632 mmHg 67%
    15:00 +1°C° 0 mm 2 m/S 632 mmHg 69%
    16:00 -1°C° 0 mm 2 m/S 632 mmHg 70%
    17:00 -2°C° 0 mm 2 m/S 632 mmHg 70%
    18:00 -3°C° 0 mm 2 m/S 632 mmHg 71%
    19:00 -3°C° 0 mm 2 m/S 632 mmHg 70%
    20:00 -4°C° 0 mm 2 m/S 632 mmHg 69%
    21:00 -4°C° 0 mm 2 m/S 632 mmHg 68%
    22:00 -4°C° 0 mm 2 m/S 632 mmHg 68%
    23:00 -4°C° 0 mm 2 m/S 632 mmHg 68%

    12 Dezember, Donnerstag

    Zeit Temperatur Niederschläge Wind Luftdruck Luftfeuchtigkeit
    00:00 -4°C° 0 mm 2 m/S 632 mmHg 69%
    01:00 -4°C° 0 mm 2 m/S 631 mmHg 68%
    02:00 -4°C° 0 mm 2 m/S 631 mmHg 68%
    03:00 -4°C° 0 mm 2 m/S 631 mmHg 68%
    04:00 -5°C° 0 mm 2 m/S 631 mmHg 69%
    05:00 -5°C° 0 mm 2 m/S 631 mmHg 70%
    06:00 -5°C° 0 mm 2 m/S 630 mmHg 70%
    07:00 -4°C° 0 mm 2 m/S 631 mmHg 70%
    08:00 -4°C° 0 mm 2 m/S 631 mmHg 70%
    09:00 -3°C° 0 mm 2 m/S 631 mmHg 70%
    10:00 -2°C° 0 mm 2 m/S 631 mmHg 69%
    11:00 -1°C° 0 mm 2 m/S 631 mmHg 68%
    12:00 +1°C° 0 mm 2 m/S 631 mmHg 66%
    13:00 +1°C° 0 mm 2 m/S 630 mmHg 68%
    14:00 +1°C° 0 mm 2 m/S 630 mmHg 71%
    15:00 -1°C° 0 mm 2 m/S 629 mmHg 73%
    16:00 -2°C° 0 mm 2 m/S 629 mmHg 74%
    17:00 -3°C° 0 mm 2 m/S 629 mmHg 75%
    18:00 -4°C° 0 mm 2 m/S 628 mmHg 76%
    19:00 -5°C° 0 mm 2 m/S 628 mmHg 74%
    20:00 -5°C° 0 mm 2 m/S 628 mmHg 73%
    21:00 -5°C° 0 mm 2 m/S 628 mmHg 71%
    22:00 -5°C° 0 mm 2 m/S 628 mmHg 72%
    23:00 -5°C° 0 mm 2 m/S 628 mmHg 72%
    Mehr zeigen